Location: Bonn
(50.7330°N, 7.1000°E)
Time: 05:20:29
(UTC+02:00)

ISS - Pass Details

Date: 01 August 2021
Orbit: 417 x 423 km, 51.6° (Epoch: 24 September)

Event Time Altitude Azimuth Distance (km) Brightness Sun altitude
Rises 22:28:17 0° 277° (W) 2,328 1.0 -9.9°
Reaches altitude 10° 22:32:02 10° 233° (SW) 1,472 -0.9 -10.3°
Maximum altitude 22:32:34 10° 224° (SW) 1,455 -1.0 -10.3°
Drops below altitude 10° 22:33:06 10° 215° (SW) 1,473 -1.1 -10.4°
Enters shadow 22:35:00 - 187° (S) 1,787 -0.9 -10.6°
